Time,TemperatureF,DewpointF,PressureIn,WindDirection,WindDirectionDegrees,WindSpeedMPH,WindSpeedGustMPH,Humidity,HourlyPrecipIn,Conditions,Clouds,dailyrainin,SoftwareType,DateUTC
2013-06-23 00:06:00,81.5,50.0,29.83,NE,34,4.0,4.0,33,0.00,,,0.00,weatherlink.com 1.10,2013-06-22 21:06:00,
2013-06-23 00:21:00,81.6,50.0,29.83,NE,35,0.0,4.0,33,0.00,,,0.00,weatherlink.com 1.10,2013-06-22 21:21:00,
2013-06-23 00:36:00,81.4,50.0,29.83,NE,35,0.0,2.0,33,0.00,,,0.00,weatherlink.com 1.10,2013-06-22 21:36:00,
2013-06-23 00:51:00,80.9,50.0,29.83,NE,35,0.0,2.0,34,0.00,,,0.00,weatherlink.com 1.10,2013-06-22 21:51:00,
2013-06-23 01:06:00,80.4,50.0,29.83,NE,35,0.0,1.0,35,0.00,,,0.00,weatherlink.com 1.10,2013-06-22 22:06:00,
2013-06-23 01:21:00,80.1,49.0,29.83,NE,35,0.0,4.0,34,0.00,,,0.00,weatherlink.com 1.10,2013-06-22 22:21:00,
2013-06-23 01:36:00,79.5,49.0,29.82,NE,35,0.0,1.0,34,0.00,,,0.00,weatherlink.com 1.10,2013-06-22 22:36:00,
2013-06-23 01:51:00,79.2,48.0,29.83,NNE,17,1.0,7.0,34,0.00,,,0.00,weatherlink.com 1.10,2013-06-22 22:51:00,
2013-06-23 02:06:00,79.2,49.0,29.82,NE,56,4.0,8.0,35,0.00,,,0.00,weatherlink.com 1.10,2013-06-22 23:06:00,
2013-06-23 02:21:00,79.2,51.0,29.82,NE,55,3.0,8.0,38,0.00,,,0.00,weatherlink.com 1.10,2013-06-22 23:21:00,
2013-06-23 02:36:00,79.4,52.0,29.82,ENE,63,5.0,7.0,38,0.00,,,0.00,weatherlink.com 1.10,2013-06-22 23:36:00,
2013-06-23 02:51:00,79.3,51.0,29.82,NNE,24,0.0,7.0,38,0.00,,,0.00,weatherlink.com 1.10,2013-06-22 23:51:00,
2013-06-23 03:06:00,79.5,51.0,29.82,NE,35,2.0,9.0,37,0.00,,,0.00,weatherlink.com 1.10,2013-06-23 00:06:00,
2013-06-23 03:21:00,79.1,51.0,29.82,ENE,70,5.0,9.0,38,0.00,,,0.00,weatherlink.com 1.10,2013-06-23 00:21:00,
2013-06-23 03:36:00,78.9,52.0,29.82,ENE,61,1.0,7.0,39,0.00,,,0.00,weatherlink.com 1.10,2013-06-23 00:36:00,
2013-06-23 03:51:00,78.8,52.0,29.81,ENE,61,2.0,6.0,40,0.00,,,0.00,weatherlink.com 1.10,2013-06-23 00:51:00,
2013-06-23 04:06:00,78.8,52.0,29.81,ENE,58,1.0,6.0,39,0.00,,,0.00,weatherlink.com 1.10,2013-06-23 01:06:00,
2013-06-23 04:21:00,78.8,50.0,29.82,NNE,28,4.0,5.0,37,0.00,,,0.00,weatherlink.com 1.10,2013-06-23 01:21:00,
2013-06-23 04:36:00,79.3,49.0,29.82,NE,42,1.0,6.0,35,0.00,,,0.00,weatherlink.com 1.10,2013-06-23 01:36:00,
2013-06-23 04:51:00,79.1,49.0,29.82,NE,46,6.0,7.0,35,0.00,,,0.00,weatherlink.com 1.10,2013-06-23 01:51:00,
2013-06-23 05:06:00,78.6,48.0,29.82,ENE,61,4.0,7.0,34,0.00,,,0.00,weatherlink.com 1.10,2013-06-23 02:06:00,
2013-06-23 05:21:00,79.1,47.0,29.82,NNE,26,1.0,5.0,32,0.00,,,0.00,weatherlink.com 1.10,2013-06-23 02:21:00,
2013-06-23 05:36:00,78.8,47.0,29.82,NW,315,0.0,4.0,32,0.00,,,0.00,weatherlink.com 1.10,2013-06-23 02:36:00,
2013-06-23 05:51:00,78.7,47.0,29.82,North,355,0.0,5.0,33,0.00,,,0.00,weatherlink.com 1.10,2013-06-23 02:51:00,
2013-06-23 06:06:00,78.0,49.0,29.81,NW,322,1.0,5.0,36,0.00,,,0.00,weatherlink.com 1.10,2013-06-23 03:06:00,
2013-06-23 06:22:00,77.3,50.0,29.81,NW,316,0.0,5.0,38,0.00,,,0.00,weatherlink.com 1.10,2013-06-23 03:22:00,
2013-06-23 06:37:00,77.0,51.0,29.81,NW,313,1.0,6.0,40,0.00,,,0.00,weatherlink.com 1.10,2013-06-23 03:37:00,
2013-06-23 06:52:00,77.7,50.0,29.81,NW,313,0.0,2.0,38,0.00,,,0.00,weatherlink.com 1.10,2013-06-23 03:52:00,
2013-06-23 07:07:00,78.3,51.0,29.81,NW,313,0.0,2.0,38,0.00,,,0.00,weatherlink.com 1.10,2013-06-23 04:07:00,
2013-06-23 07:22:00,79.0,51.0,29.81,NW,313,0.0,1.0,38,0.00,,,0.00,weatherlink.com 1.10,2013-06-23 04:22:00,
2013-06-23 07:37:00,80.0,51.0,29.81,NW,313,0.0,1.0,36,0.00,,,0.00,weatherlink.com 1.10,2013-06-23 04:37:00,
2013-06-23 07:52:00,81.0,51.0,29.81,NW,313,0.0,0.0,35,0.00,,,0.00,weatherlink.com 1.10,2013-06-23 04:52:00,
2013-06-23 08:07:00,81.2,54.0,29.81,North,355,2.0,2.0,39,0.00,,,0.00,weatherlink.com 1.10,2013-06-23 05:07:00,
2013-06-23 08:22:00,83.1,51.0,29.80,North,5,0.0,9.0,33,0.00,,,0.00,weatherlink.com 1.10,2013-06-23 05:22:00,
2013-06-23 08:37:00,84.2,50.0,29.81,NNW,338,2.0,11.0,31,0.00,,,0.00,weatherlink.com 1.10,2013-06-23 05:37:00,
2013-06-23 08:52:00,85.2,51.0,29.81,North,360,6.0,10.0,31,0.00,,,0.00,weatherlink.com 1.10,2013-06-23 05:52:00,
2013-06-23 09:07:00,85.7,52.0,29.82,North,355,2.0,9.0,31,0.00,,,0.00,weatherlink.com 1.10,2013-06-23 06:07:00,
2013-06-23 09:22:00,85.8,53.0,29.81,NNE,32,2.0,15.0,32,0.00,,,0.00,weatherlink.com 1.10,2013-06-23 06:22:00,
2013-06-23 09:37:00,85.7,53.0,29.82,NNW,338,4.0,15.0,33,0.00,,,0.00,weatherlink.com 1.10,2013-06-23 06:37:00,
2013-06-23 09:52:00,86.4,55.0,29.82,NNE,12,2.0,10.0,34,0.00,,,0.00,weatherlink.com 1.10,2013-06-23 06:52:00,
2013-06-23 10:07:00,86.7,55.0,29.81,ENE,64,9.0,12.0,34,0.00,,,0.00,weatherlink.com 1.10,2013-06-23 07:07:00,
2013-06-23 10:22:00,87.2,57.0,29.81,NE,42,9.0,12.0,36,0.00,,,0.00,weatherlink.com 1.10,2013-06-23 07:22:00,
2013-06-23 10:37:00,87.7,58.0,29.81,NE,44,5.0,16.0,37,0.00,,,0.00,weatherlink.com 1.10,2013-06-23 07:37:00,
2013-06-23 10:52:00,88.4,59.0,29.80,ENE,67,5.0,13.0,37,0.00,,,0.00,weatherlink.com 1.10,2013-06-23 07:52:00,
2013-06-23 11:07:00,89.0,59.0,29.80,ENE,58,7.0,11.0,37,0.00,,,0.00,weatherlink.com 1.10,2013-06-23 08:07:00,
2013-06-23 11:22:00,89.8,60.0,29.80,NE,41,6.0,9.0,37,0.00,,,0.00,weatherlink.com 1.10,2013-06-23 08:22:00,
2013-06-23 11:37:00,90.2,60.0,29.80,North,355,9.0,12.0,36,0.00,,,0.00,weatherlink.com 1.10,2013-06-23 08:37:00,
2013-06-23 11:52:00,90.7,60.0,29.80,NE,42,5.0,15.0,35,0.00,,,0.00,weatherlink.com 1.10,2013-06-23 08:52:00,
2013-06-23 12:07:00,91.2,59.0,29.80,North,355,4.0,11.0,34,0.00,,,0.00,weatherlink.com 1.10,2013-06-23 09:07:00,
2013-06-23 12:22:00,91.2,58.0,29.80,NE,49,6.0,11.0,33,0.00,,,0.00,weatherlink.com 1.10,2013-06-23 09:22:00,
2013-06-23 12:37:00,92.0,58.0,29.80,NNE,28,0.0,9.0,32,0.00,,,0.00,weatherlink.com 1.10,2013-06-23 09:37:00,
2013-06-23 12:52:00,92.3,58.0,29.80,SW,217,5.0,8.0,32,0.00,,,0.00,weatherlink.com 1.10,2013-06-23 09:52:00,
2013-06-23 13:07:00,88.8,62.0,29.80,SW,236,3.0,8.0,41,0.00,,,0.00,weatherlink.com 1.10,2013-06-23 10:07:00,
2013-06-23 13:22:00,88.8,62.0,29.80,SSW,204,1.0,10.0,40,0.00,,,0.00,weatherlink.com 1.10,2013-06-23 10:22:00,
2013-06-23 13:37:00,89.9,60.0,29.80,SSW,200,5.0,10.0,36,0.00,,,0.00,weatherlink.com 1.10,2013-06-23 10:37:00,
2013-06-23 13:52:00,89.8,59.0,29.80,SW,229,7.0,9.0,35,0.00,,,0.00,weatherlink.com 1.10,2013-06-23 10:52:00,
2013-06-23 14:07:00,90.0,59.0,29.79,SW,222,5.0,11.0,35,0.00,,,0.00,weatherlink.com 1.10,2013-06-23 11:07:00,
2013-06-23 14:22:00,90.1,60.0,29.79,SSW,203,2.0,9.0,36,0.00,,,0.00,weatherlink.com 1.10,2013-06-23 11:22:00,
2013-06-23 14:37:00,90.3,59.0,29.79,WSW,243,2.0,11.0,35,0.00,,,0.00,weatherlink.com 1.10,2013-06-23 11:37:00,
2013-06-23 14:52:00,90.4,60.0,29.78,SSW,192,1.0,9.0,36,0.00,,,0.00,weatherlink.com 1.10,2013-06-23 11:52:00,
2013-06-23 15:07:00,90.0,60.0,29.78,SW,230,4.0,9.0,36,0.00,,,0.00,weatherlink.com 1.10,2013-06-23 12:07:00,
2013-06-23 15:22:00,91.3,61.0,29.77,WSW,246,1.0,7.0,36,0.00,,,0.00,weatherlink.com 1.10,2013-06-23 12:22:00,
2013-06-23 15:37:00,91.7,60.0,29.77,SSW,208,1.0,5.0,35,0.00,,,0.00,weatherlink.com 1.10,2013-06-23 12:37:00,
2013-06-23 15:52:00,90.5,60.0,29.77,WSW,238,5.0,8.0,36,0.00,,,0.00,weatherlink.com 1.10,2013-06-23 12:52:00,
2013-06-23 16:08:00,91.3,62.0,29.76,SSW,200,0.0,6.0,37,0.00,,,0.00,weatherlink.com 1.10,2013-06-23 13:08:00,
2013-06-23 16:23:00,91.4,62.0,29.76,SW,215,4.0,6.0,37,0.00,,,0.00,weatherlink.com 1.10,2013-06-23 13:23:00,
2013-06-23 16:38:00,90.7,62.0,29.76,SW,217,0.0,6.0,39,0.00,,,0.00,weatherlink.com 1.10,2013-06-23 13:38:00,
2013-06-23 16:53:00,90.1,62.0,29.76,SW,219,1.0,6.0,39,0.00,,,0.00,weatherlink.com 1.10,2013-06-23 13:53:00,
2013-06-23 17:08:00,89.2,64.0,29.75,South,172,1.0,6.0,43,0.00,,,0.00,weatherlink.com 1.10,2013-06-23 14:08:00,
2013-06-23 17:23:00,89.2,64.0,29.75,SW,215,0.0,7.0,43,0.00,,,0.00,weatherlink.com 1.10,2013-06-23 14:23:00,
2013-06-23 17:38:00,89.6,64.0,29.76,SSW,211,0.0,7.0,43,0.00,,,0.00,weatherlink.com 1.10,2013-06-23 14:38:00,
2013-06-23 17:53:00,86.4,63.0,29.76,SSW,211,6.0,8.0,46,0.00,,,0.00,weatherlink.com 1.10,2013-06-23 14:53:00,
2013-06-23 18:08:00,86.5,65.0,29.76,SW,223,4.0,6.0,48,0.00,,,0.00,weatherlink.com 1.10,2013-06-23 15:08:00,
2013-06-23 18:23:00,86.1,64.0,29.76,SSW,194,2.0,7.0,48,0.00,,,0.00,weatherlink.com 1.10,2013-06-23 15:23:00,
2013-06-23 18:38:00,84.8,64.0,29.76,South,187,2.0,7.0,49,0.00,,,0.00,weatherlink.com 1.10,2013-06-23 15:38:00,
2013-06-23 18:53:00,82.8,63.0,29.76,SSW,209,8.0,9.0,52,0.00,,,0.00,weatherlink.com 1.10,2013-06-23 15:53:00,
2013-06-23 19:08:00,81.3,65.0,29.76,SW,236,4.0,9.0,58,0.00,,,0.00,weatherlink.com 1.10,2013-06-23 16:08:00,
2013-06-23 19:23:00,81.2,65.0,29.75,SW,217,4.0,6.0,59,0.00,,,0.00,weatherlink.com 1.10,2013-06-23 16:23:00,
2013-06-23 19:38:00,81.8,65.0,29.75,SW,217,0.0,4.0,57,0.00,,,0.00,weatherlink.com 1.10,2013-06-23 16:38:00,
2013-06-23 19:53:00,82.1,65.0,29.75,SW,217,0.0,1.0,57,0.00,,,0.00,weatherlink.com 1.10,2013-06-23 16:53:00,
2013-06-23 20:08:00,81.7,65.0,29.75,SW,217,0.0,0.0,58,0.00,,,0.00,weatherlink.com 1.10,2013-06-23 17:08:00,
2013-06-23 20:23:00,81.9,65.0,29.75,SW,217,0.0,1.0,56,0.00,,,0.00,weatherlink.com 1.10,2013-06-23 17:23:00,
2013-06-23 20:38:00,80.7,64.0,29.75,SW,217,0.0,1.0,58,0.00,,,0.00,weatherlink.com 1.10,2013-06-23 17:38:00,
2013-06-23 20:53:00,79.7,64.0,29.75,SW,217,0.0,5.0,60,0.00,,,0.00,weatherlink.com 1.10,2013-06-23 17:53:00,
2013-06-23 21:08:00,79.0,65.0,29.76,SW,217,0.0,2.0,63,0.00,,,0.00,weatherlink.com 1.10,2013-06-23 18:08:00,
2013-06-23 21:23:00,79.0,65.0,29.76,SW,217,0.0,1.0,63,0.00,,,0.00,weatherlink.com 1.10,2013-06-23 18:23:00,
2013-06-23 21:38:00,79.5,65.0,29.77,SW,218,0.0,2.0,62,0.00,,,0.00,weatherlink.com 1.10,2013-06-23 18:38:00,
2013-06-23 21:53:00,79.3,65.0,29.77,SW,218,0.0,0.0,62,0.00,,,0.00,weatherlink.com 1.10,2013-06-23 18:53:00,
2013-06-23 22:08:00,79.5,64.0,29.78,SW,218,0.0,0.0,60,0.00,,,0.00,weatherlink.com 1.10,2013-06-23 19:08:00,
2013-06-23 22:23:00,79.2,64.0,29.78,SW,218,0.0,2.0,60,0.00,,,0.00,weatherlink.com 1.10,2013-06-23 19:23:00,
2013-06-23 22:38:00,79.1,63.0,29.77,SW,218,0.0,1.0,59,0.00,,,0.00,weatherlink.com 1.10,2013-06-23 19:38:00,
2013-06-23 22:53:00,79.3,64.0,29.78,SW,218,0.0,0.0,59,0.00,,,0.00,weatherlink.com 1.10,2013-06-23 19:53:00,
2013-06-23 23:08:00,79.6,63.0,29.78,SW,218,0.0,0.0,58,0.00,,,0.00,weatherlink.com 1.10,2013-06-23 20:08:00,
2013-06-23 23:23:00,79.8,64.0,29.78,SW,218,0.0,0.0,58,0.00,,,0.00,weatherlink.com 1.10,2013-06-23 20:23:00,
2013-06-23 23:38:00,79.1,64.0,29.78,SW,218,0.0,1.0,60,0.00,,,0.00,weatherlink.com 1.10,2013-06-23 20:38:00,
2013-06-23 23:53:00,78.7,64.0,29.78,SW,218,0.0,0.0,61,0.00,,,0.00,weatherlink.com 1.10,2013-06-23 20:53:00,